Simultaneous Nadir Overpasses (SNOs) Predictions

Prediction of SNOs between GOES-15 and METOP-B Satellite Orbit:

Table of predicted SNOs for the next 14.0 days since TLE Epoch: 6/21/2019
Index Date Time (GOES-15) GOES-15 Lat,Lon METOP-B Lat,Lon Distance(km) Time Diff (sec)
1 06/22/2019 05:48:47 0.16,-128.10 0.77,-125.26 323.96 80
2 06/23/2019 18:10:19 -0.14,-128.12 0.24,-129.82 193.84 80
3 06/24/2019 17:47:00 -0.16,-128.09 -0.86,-124.82 372.13 80
4 06/26/2019 06:08:40 0.14,-128.00 -0.15,-129.42 161.58 80
5 06/27/2019 05:45:20 0.15,-127.97 0.95,-124.42 403.85 80
6 06/28/2019 18:06:52 -0.13,-127.97 0.12,-128.97 114.99 80
7 06/29/2019 17:43:33 -0.15,-127.94 -1.05,-123.99 450.29 80
8 07/01/2019 06:05:13 0.13,-127.83 -0.03,-128.57 84.37 80
9 07/02/2019 05:41:53 0.15,-127.79 1.08,-123.58 479.96 80
10 07/03/2019 18:03:25 -0.13,-127.78 -0.07,-128.14 40.73 80




NCC Satellite Simultaneous Nadir Overpasses (SNOs) Prediction Service
